TimeCDT,TemperatureF,Dew PointF,Humidity,Sea Level PressureIn,VisibilityMPH,Wind Direction,Wind SpeedMPH,Gust SpeedMPH,PrecipitationIn,Events,Conditions,WindDirDegrees,DateUTC
12:54 AM,41.0,35.1,79,30.20,10.0,SE,5.8,-,N/A,,Clear,140,2013-03-30 05:54:00
1:54 AM,41.0,35.1,79,30.18,10.0,SSE,4.6,-,N/A,,Clear,150,2013-03-30 06:54:00
2:54 AM,41.0,35.1,79,30.18,9.0,SSE,4.6,-,N/A,,Clear,150,2013-03-30 07:54:00
3:54 AM,39.9,35.1,83,30.16,8.0,SSE,5.8,-,N/A,,Clear,150,2013-03-30 08:54:00
4:54 AM,41.0,34.0,76,30.13,10.0,ESE,8.1,-,N/A,,Clear,120,2013-03-30 09:54:00
5:54 AM,37.0,33.1,86,30.13,8.0,SSE,6.9,-,N/A,,Clear,150,2013-03-30 10:54:00
6:54 AM,39.0,36.0,89,30.11,3.0,SSE,8.1,-,N/A,,Clear,150,2013-03-30 11:54:00
7:08 AM,39.2,37.4,93,30.10,2.5,SSE,8.1,-,N/A,,Clear,150,2013-03-30 12:08:00
7:22 AM,42.8,39.2,87,30.09,3.0,SSE,10.4,-,N/A,,Clear,150,2013-03-30 12:22:00
7:54 AM,45.0,41.0,86,30.10,4.0,SSE,11.5,-,N/A,,Clear,160,2013-03-30 12:54:00
8:54 AM,46.0,42.1,86,30.11,4.0,South,9.2,-,N/A,,Clear,170,2013-03-30 13:54:00
9:54 AM,48.9,43.0,80,30.09,6.0,South,9.2,-,N/A,,Haze,180,2013-03-30 14:54:00
10:54 AM,48.9,41.0,74,30.07,8.0,South,15.0,-,N/A,,Scattered Clouds,170,2013-03-30 15:54:00
11:54 AM,52.0,41.0,66,30.04,10.0,South,16.1,21.9,N/A,,Mostly Cloudy,170,2013-03-30 16:54:00
12:54 PM,53.1,39.0,59,30.02,10.0,South,15.0,24.2,N/A,,Overcast,180,2013-03-30 17:54:00
1:54 PM,53.1,42.1,66,30.01,10.0,South,11.5,19.6,N/A,,Overcast,180,2013-03-30 18:54:00
2:54 PM,52.0,39.0,61,29.99,10.0,South,9.2,-,N/A,,Overcast,190,2013-03-30 19:54:00
3:54 PM,52.0,39.9,63,29.97,10.0,South,4.6,-,N/A,,Overcast,180,2013-03-30 20:54:00
4:54 PM,50.0,41.0,71,29.95,10.0,SSW,13.8,-,N/A,,Overcast,200,2013-03-30 21:54:00
5:54 PM,48.9,42.1,77,29.93,10.0,South,11.5,-,N/A,,Overcast,170,2013-03-30 22:54:00
6:26 PM,48.2,42.8,82,29.92,10.0,South,8.1,-,N/A,,Overcast,190,2013-03-30 23:26:00
6:54 PM,48.0,42.1,80,29.93,10.0,South,10.4,-,N/A,,Overcast,190,2013-03-30 23:54:00
7:54 PM,48.0,43.0,83,29.92,9.0,South,9.2,-,N/A,,Overcast,190,2013-03-31 00:54:00
8:54 PM,46.9,44.1,90,29.92,8.0,South,8.1,-,N/A,,Overcast,190,2013-03-31 01:54:00
9:54 PM,46.9,44.1,90,29.93,8.0,SSW,8.1,-,N/A,,Overcast,200,2013-03-31 02:54:00
10:54 PM,46.9,43.0,86,29.92,8.0,SSW,6.9,-,N/A,,Overcast,210,2013-03-31 03:54:00
11:54 PM,46.9,43.0,86,29.91,7.0,SW,4.6,-,N/A,,Overcast,220,2013-03-31 04:54:00